Location: Unspecified
(44.8237°N, 0.6475°W)
Time: 21:06:14
(UTC+01:00)

ISS - Pass Details

Date: 03 October 2022
Orbit: 415 x 420 km, 51.6° (Epoch: 30 November)

Event Time Altitude Azimuth Distance (km) Brightness Sun altitude
Rises 20:13:39 0° 300° (WNW) 2,372 1.3 -6.9°
Reaches altitude 10° 20:15:46 10° 300° (WNW) 1,505 0.2 -7.2°
Maximum altitude 20:19:09 87° 27° (NNE) 425 -3.8 -7.8°
Drops below altitude 10° 20:22:31 10° 120° (ESE) 1,496 -1.5 -8.4°
Enters shadow 20:22:42 - 120° (ESE) 1,570 -1.4 -8.5°
